Total_Precipitation_Accumulation
0.01 0.02 0.04 0.07 0.15 0.34 0.46 0.36 0.45 0.49 0.61 0.64 0.66 0.75 0.79 0.85 1.31 2.16 1.42 0.86 0.58 0.41 0.41 0.49 0.46 0.43 0.48 0.48 0.52 0.54 0.58 0.58 0.57 0.57 0.54 0.53 0.58 0.62 0.65 0.78 0.90 1.04 1.15 1.13 1.20 1.32 1.32 1.21 1.13
0.02 0.03 0.05 0.09 0.21 0.39 0.48 0.51 0.62 0.51 0.58 0.64 0.66 0.72 0.71 0.71 0.70 0.79 0.84 0.83 0.65 0.50 0.60 0.56 0.45 0.43 0.48 0.50 0.56 0.57 0.61 0.66 0.68 0.71 0.66 0.62 0.66 0.72 0.73 0.85 0.98 1.12 1.31 1.28 1.21 1.29 1.36 1.19 1.14
0.03 0.04 0.08 0.17 0.24 0.35 0.54 0.60 0.66 0.59 0.66 0.67 0.76 0.82 0.91 0.94 0.82 0.78 0.81 0.78 0.69 0.58 0.69 0.63 0.50 0.48 0.49 0.56 0.55 0.60 0.66 0.73 0.79 0.84 0.90 0.85 0.72 0.73 0.77 0.88 1.02 1.14 1.32 1.54 1.43 1.37 1.46 1.26 1.19
0.03 0.05 0.10 0.24 0.25 0.26 0.40 0.51 0.59 0.68 0.85 0.75 0.77 0.89 0.95 0.95 0.91 0.91 0.94 0.84 0.64 0.59 0.63 0.61 0.58 0.57 0.56 0.59 0.62 0.70 0.79 0.83 0.84 0.91 0.98 1.06 0.91 0.86 0.88 1.03 1.13 1.22 1.33 1.52 1.75 1.65 1.72 1.60 1.33
0.04 0.11 0.18 0.27 0.28 0.31 0.40 0.47 0.60 0.81 0.85 0.76 0.79 1.07 1.29 1.26 1.05 1.01 0.99 0.87 0.70 0.64 0.66 0.76 0.80 0.84 0.84 0.80 0.79 0.85 0.90 0.95 0.98 0.96 1.00 1.13 1.07 1.02 1.08 1.20 1.28 1.38 1.44 1.54 1.65 1.63 1.79 1.68 1.45
0.07 0.15 0.26 0.35 0.34 0.33 0.39 0.54 0.66 0.80 0.94 0.88 0.89 1.25 1.78 1.78 1.52 1.34 1.13 1.08 0.95 0.80 0.87 0.99 1.13 1.21 1.12 1.05 1.00 1.01 0.99 0.98 1.02 1.12 1.09 1.14 1.21 1.21 1.17 1.25 1.38 1.57 1.66 1.67 1.70 1.69 1.71 1.71 1.63
0.08 0.15 0.24 0.34 0.36 0.44 0.40 0.45 0.70 0.92 1.10 1.19 1.05 1.32 1.78 1.93 1.73 1.52 1.59 1.50 1.31 1.21 1.28 1.25 1.18 1.16 1.17 1.15 1.11 1.18 1.15 1.11 1.12 1.22 1.28 1.21 1.24 1.30 1.35 1.46 1.53 1.58 1.60 1.61 1.72 1.94 1.83 1.69 1.68
0.05 0.11 0.20 0.28 0.38 0.47 0.47 0.54 0.72 0.97 1.19 1.19 1.02 1.37 1.86 1.90 1.72 1.80 2.01 1.97 1.96 2.06 2.30 1.79 1.41 1.25 1.12 1.13 1.23 1.32 1.46 1.41 1.30 1.32 1.42 1.44 1.45 1.49 1.56 1.60 1.63 1.61 1.65 1.65 1.82 2.05 2.07 1.94 1.81
0.05 0.10 0.18 0.26 0.38 0.46 0.49 0.60 0.66 0.70 0.99 0.96 0.88 1.10 1.63 1.67 1.60 1.92 2.39 2.66 2.58 2.77 2.99 2.25 1.77 1.54 1.42 1.40 1.43 1.52 1.69 1.79 1.63 1.52 1.55 1.69 1.83 2.06 2.07 1.86 1.89 1.80 1.87 1.90 2.00 2.16 2.18 2.23 2.21
0.07 0.14 0.19 0.22 0.32 0.43 0.52 0.56 0.70 0.79 1.00 1.00 0.90 0.99 1.21 1.66 1.87 2.17 2.53 3.16 3.17 2.82 2.64 2.39 2.19 1.89 1.72 1.67 1.89 1.97 1.89 1.94 1.80 1.94 1.86 2.02 2.53 2.70 2.38 2.33 2.26 2.13 2.20 2.34 2.41 2.42 2.40 2.26 2.26
0.08 0.19 0.19 0.23 0.34 0.51 0.60 0.65 0.83 1.09 1.23 1.22 1.20 1.33 1.63 1.96 2.12 2.41 2.72 3.20 3.44 3.31 2.82 2.56 2.34 2.25 2.11 2.20 2.42 2.51 2.57 2.59 2.38 2.49 2.46 2.54 2.71 2.67 2.67 2.66 2.56 2.56 2.56 2.80 2.94 2.74 2.49 2.34 2.36
0.09 0.15 0.16 0.29 0.35 0.44 0.62 0.68 0.79 1.06 1.37 1.42 1.45 1.61 2.03 2.29 2.49 2.82 3.03 3.34 3.40 3.50 3.38 2.85 2.71 2.78 2.98 3.01 2.93 2.87 2.86 2.95 2.87 2.88 2.71 2.82 2.94 2.96 2.87 2.89 2.81 2.87 2.80 3.03 3.10 3.06 2.94 2.76 2.58
0.12 0.20 0.20 0.27 0.33 0.44 0.51 0.68 0.76 0.99 1.03 1.20 1.48 1.82 2.04 2.01 2.45 2.96 3.06 3.37 3.48 3.56 3.46 3.16 3.34 3.42 3.50 3.53 3.49 3.23 3.13 3.36 3.38 3.33 3.21 3.22 3.13 3.01 3.02 2.97 2.97 2.88 3.01 3.15 3.23 3.11 3.02 2.94 2.77
0.13 0.14 0.18 0.24 0.28 0.38 0.46 0.61 0.78 1.02 1.12 1.23 1.46 1.64 1.79 2.02 2.51 2.95 3.20 3.57 3.51 3.53 3.76 3.71 3.79 3.68 3.61 3.69 3.85 3.89 3.56 3.68 3.91 3.99 3.83 3.63 3.47 3.38 3.39 3.45 3.40 3.15 3.19 3.34 3.47 3.36 3.26 3.02 2.88
0.16 0.15 0.21 0.26 0.27 0.29 0.39 0.65 0.77 0.95 1.09 1.14 1.29 1.36 1.51 2.00 2.41 2.97 3.34 3.71 3.70 3.74 3.82 3.85 3.74 3.93 4.04 4.05 4.03 4.09 3.98 3.92 4.08 4.28 4.29 3.94 3.64 3.74 3.78 3.91 3.89 3.57 3.54 3.66 3.76 3.74 3.63 3.24 2.95
0.18 0.20 0.31 0.34 0.32 0.33 0.45 0.86 1.02 0.97 0.97 1.10 1.16 1.20 1.42 1.99 2.45 2.82 3.17 3.53 3.59 3.75 4.09 4.03 3.63 4.05 4.28 4.23 4.18 3.96 4.02 4.27 4.47 4.50 4.62 4.29 3.91 3.81 4.00 3.91 3.74 3.71 3.84 4.09 4.27 4.16 4.09 3.86 3.63
0.22 0.27 0.37 0.42 0.39 0.40 0.51 0.88 1.20 1.11 1.02 1.05 1.02 1.10 1.32 1.66 2.20 2.58 3.00 3.41 3.67 3.92 4.42 4.25 3.99 4.16 4.29 4.35 4.41 4.15 4.21 4.54 4.70 4.83 4.84 4.38 3.96 3.91 4.18 4.21 4.17 4.08 4.14 4.27 4.10 4.24 4.17 4.31 4.13
0.27 0.34 0.46 0.51 0.49 0.46 0.61 0.93 1.22 1.32 1.24 1.16 1.12 1.24 1.47 1.54 1.78 2.13 2.68 3.27 3.65 4.24 4.97 4.59 4.20 4.17 4.47 4.48 4.33 4.29 4.41 4.71 5.03 5.10 4.91 4.59 4.42 4.26 4.46 4.40 4.44 4.48 4.58 4.49 4.44 4.49 4.29 4.19 4.14
0.25 0.35 0.45 0.58 0.53 0.57 0.72 1.03 1.26 1.45 1.40 1.23 1.30 1.52 1.53 1.52 1.72 1.96 2.52 3.23 3.63 4.16 4.66 4.66 4.46 4.53 4.62 4.63 4.40 4.53 4.71 5.02 5.31 5.27 5.17 5.05 4.92 4.85 4.94 4.95 4.91 4.74 4.66 4.56 4.48 4.49 4.41 4.11 3.97
0.22 0.32 0.43 0.58 0.56 0.63 0.76 1.07 1.42 1.55 1.54 1.48 1.48 1.73 1.65 1.70 1.93 2.25 2.80 3.16 3.53 3.88 4.14 4.45 4.60 4.64 4.43 4.79 5.07 5.34 5.67 5.73 6.01 6.26 6.29 6.08 5.78 5.59 5.44 5.42 5.08 4.76 4.64 4.52 4.41 4.35 4.22 3.87 3.75
0.19 0.24 0.38 0.48 0.52 0.58 0.77 1.29 1.51 1.65 1.63 1.68 1.77 2.02 1.97 2.01 2.22 2.61 2.97 3.12 3.34 3.68 4.03 4.37 4.72 4.85 4.78 5.26 5.78 6.23 6.61 6.54 6.59 6.55 6.51 6.43 6.00 5.67 5.46 5.21 5.01 4.80 4.62 4.45 4.44 4.35 4.23 3.93 3.73
0.18 0.16 0.23 0.33 0.49 0.69 0.71 1.31 1.58 1.80 1.83 1.71 1.91 2.11 2.19 2.02 2.06 2.40 2.74 3.18 3.16 3.41 3.82 4.15 4.58 5.00 5.31 5.71 6.19 6.72 7.06 7.27 7.11 6.78 6.48 6.10 5.61 5.27 4.91 4.73 4.77 4.64 4.43 4.23 3.94 3.82 3.83 3.80 3.63
0.16 0.13 0.20 0.31 0.43 0.65 0.73 1.14 1.66 1.91 1.98 1.84 1.96 2.01 2.11 2.00 1.97 2.18 2.33 2.68 2.95 3.18 3.54 3.99 4.33 4.75 5.40 6.15 6.71 7.23 7.57 7.58 7.04 6.44 5.87 5.40 4.98 4.62 4.38 4.31 4.41 4.31 4.06 3.87 3.62 3.43 3.27 3.28 3.36
0.12 0.20 0.30 0.41 0.56 0.92 0.79 1.10 1.85 2.01 2.07 2.09 2.03 1.96 2.02 2.00 2.02 2.19 2.32 2.61 2.83 2.95 3.21 3.72 4.28 4.64 5.20 5.97 6.58 6.92 7.10 7.03 6.59 5.93 5.38 4.91 4.45 4.07 3.77 3.57 3.48 3.39 3.23 3.12 3.10 3.06 3.02 3.01 3.08
0.16 0.38 0.73 0.93 1.01 0.98 0.79 1.13 1.92 2.12 2.03 2.02 2.06 2.12 2.21 2.22 2.22 2.22 2.23 2.33 2.60 2.76 3.04 3.49 3.98 4.46 4.83 5.28 5.79 5.86 5.92 5.67 5.28 5.06 4.73 4.22 3.79 3.42 3.08 2.89 2.76 2.72 2.68 2.62 2.67 2.73 2.76 2.73 2.80
0.15 0.34 0.86 1.10 1.08 1.06 1.12 1.71 2.37 2.30 2.14 2.07 1.95 1.95 2.08 2.15 2.08 2.12 2.10 2.31 2.64 2.91 3.16 3.41 3.66 4.00 4.36 4.52 4.66 4.54 4.40 4.30 4.14 3.93 3.57 3.23 2.95 2.76 2.65 2.55 2.39 2.34 2.37 2.36 2.50 2.48 2.40 2.41 2.45
0.18 0.25 0.40 0.61 0.80 1.19 1.57 2.12 2.66 2.60 2.36 2.14 2.02 1.96 2.02 1.95 1.89 1.98 2.10 2.37 2.63 2.90 3.06 3.28 3.43 3.54 3.53 3.52 3.59 3.56 3.48 3.34 3.26 3.15 2.85 2.60 2.45 2.27 2.24 2.21 2.13 2.03 1.98 1.97 2.00 1.98 2.01 2.09 2.06
0.17 0.22 0.35 0.69 1.12 1.45 1.75 2.39 2.95 3.00 2.69 2.16 1.96 1.85 1.91 1.99 1.95 1.98 2.12 2.37 2.37 2.43 2.61 2.85 2.97 3.10 3.06 2.92 2.84 2.94 2.86 2.69 2.52 2.37 2.27 2.12 2.02 1.95 1.93 1.86 1.79 1.80 1.81 1.75 1.67 1.64 1.68 1.75 1.82
0.26 0.34 0.42 0.70 0.89 1.28 1.97 2.76 2.78 3.07 2.92 2.53 2.19 1.94 1.99 2.09 2.05 1.99 2.12 2.22 2.08 1.99 2.02 2.18 2.35 2.63 2.65 2.55 2.43 2.45 2.38 2.29 2.15 2.04 1.97 1.95 1.83 1.78 1.72 1.71 1.68 1.58 1.54 1.56 1.59 1.56 1.60 1.72 1.74
0.30 0.39 0.50 0.89 1.01 1.03 1.84 2.95 2.63 2.68 2.82 2.68 2.41 2.22 2.10 2.10 2.10 2.00 2.02 2.07 1.99 1.87 1.78 1.89 2.03 2.10 2.10 2.09 2.16 2.22 2.12 2.07 1.98 1.93 1.91 1.88 1.73 1.68 1.68 1.66 1.60 1.42 1.35 1.48 1.55 1.51 1.50 1.63 1.64